Year,Month,Day,Hour,Minute,Value (Times are PST for temperature in C)
2014,12,07,00,00,7.10
2014,12,07,00,01,7.10
2014,12,07,00,02,7.10
2014,12,07,00,03,7.10
2014,12,07,00,04,7.10
2014,12,07,00,05,7.10
2014,12,07,00,06,7.10
2014,12,07,00,07,7.10
2014,12,07,00,08,7.10
2014,12,07,00,09,7.10
2014,12,07,00,10,7.10
2014,12,07,00,11,7.10
2014,12,07,00,12,7.10
2014,12,07,00,13,7.10
2014,12,07,00,14,7.10
2014,12,07,00,15,7.10
2014,12,07,00,16,7.10
2014,12,07,00,17,7.10
2014,12,07,00,18,7.10
2014,12,07,00,19,7.10
2014,12,07,00,20,7.10
2014,12,07,00,21,7.10
2014,12,07,00,22,7.10
2014,12,07,00,23,7.10
2014,12,07,00,24,7.10
2014,12,07,00,25,7.10
2014,12,07,00,26,7.10
2014,12,07,00,27,7.10
2014,12,07,00,28,7.10
2014,12,07,00,29,7.10
2014,12,07,00,30,7.10
2014,12,07,00,31,7.10
2014,12,07,00,32,7.10
2014,12,07,00,33,7.10
2014,12,07,00,34,7.10
2014,12,07,00,35,7.10
2014,12,07,00,36,7.10
2014,12,07,00,37,7.10
2014,12,07,00,38,7.10
2014,12,07,00,39,7.10
2014,12,07,00,40,7.10
2014,12,07,00,41,7.10
2014,12,07,00,42,7.10
2014,12,07,00,43,7.10
2014,12,07,00,44,7.10
2014,12,07,00,45,7.10
2014,12,07,00,46,7.10
2014,12,07,00,47,7.10
2014,12,07,00,48,7.10
2014,12,07,00,49,7.10
2014,12,07,00,50,7.10
2014,12,07,00,51,7.10
2014,12,07,00,52,7.10
2014,12,07,00,53,7.10
2014,12,07,00,54,7.10
2014,12,07,00,55,7.10
2014,12,07,00,56,7.10
2014,12,07,00,57,7.20
2014,12,07,00,58,7.20
2014,12,07,00,59,7.20
2014,12,07,01,00,7.20
2014,12,07,01,01,7.20
2014,12,07,01,02,7.20
2014,12,07,01,03,7.20
2014,12,07,01,04,7.20
2014,12,07,01,05,7.20
2014,12,07,01,06,7.20
2014,12,07,01,07,7.20
2014,12,07,01,08,7.20
2014,12,07,01,09,7.20
2014,12,07,01,10,7.20
2014,12,07,01,11,7.20
2014,12,07,01,12,7.20
2014,12,07,01,13,7.20
2014,12,07,01,14,7.20
2014,12,07,01,15,7.20
2014,12,07,01,16,7.20
2014,12,07,01,17,7.20
2014,12,07,01,18,7.20
2014,12,07,01,19,7.20
2014,12,07,01,20,7.20
2014,12,07,01,21,7.20
2014,12,07,01,22,7.20
2014,12,07,01,23,7.20
2014,12,07,01,24,7.20
2014,12,07,01,25,7.20
2014,12,07,01,26,7.20
2014,12,07,01,27,7.20
2014,12,07,01,28,7.20
2014,12,07,01,29,7.30
2014,12,07,01,30,7.30
2014,12,07,01,31,7.30
2014,12,07,01,32,7.30
2014,12,07,01,33,7.30
2014,12,07,01,34,7.30
2014,12,07,01,35,7.30
2014,12,07,01,36,7.30
2014,12,07,01,37,7.30
2014,12,07,01,38,7.30
2014,12,07,01,39,7.30
2014,12,07,01,40,7.30
2014,12,07,01,41,7.30
2014,12,07,01,42,7.30
2014,12,07,01,43,7.30
2014,12,07,01,44,7.30
2014,12,07,01,45,7.30
2014,12,07,01,46,7.30
2014,12,07,01,47,7.30
2014,12,07,01,48,7.30
2014,12,07,01,49,7.30
2014,12,07,01,50,7.30
2014,12,07,01,51,7.30
2014,12,07,01,52,7.30
2014,12,07,01,53,7.30
2014,12,07,01,54,7.30
2014,12,07,01,55,7.30
2014,12,07,01,56,7.30
2014,12,07,01,57,7.30
2014,12,07,01,58,7.30
2014,12,07,01,59,7.30
2014,12,07,02,00,7.30
2014,12,07,02,01,7.30
2014,12,07,02,02,7.30
2014,12,07,02,03,7.30
2014,12,07,02,04,7.30
2014,12,07,02,05,7.30
2014,12,07,02,06,7.30
2014,12,07,02,07,7.30
2014,12,07,02,08,7.30
2014,12,07,02,09,7.30
2014,12,07,02,10,7.30
2014,12,07,02,11,7.30
2014,12,07,02,12,7.30
2014,12,07,02,13,7.30
2014,12,07,02,14,7.30
2014,12,07,02,15,7.30
2014,12,07,02,16,7.30
2014,12,07,02,17,7.30
2014,12,07,02,18,7.30
2014,12,07,02,19,7.30
2014,12,07,02,20,7.30
2014,12,07,02,21,7.30
2014,12,07,02,22,7.30
2014,12,07,02,23,7.30
2014,12,07,02,24,7.30
2014,12,07,02,25,7.30
2014,12,07,02,26,7.30
2014,12,07,02,27,7.30
2014,12,07,02,28,7.30
2014,12,07,02,29,7.30
2014,12,07,02,30,7.30
2014,12,07,02,31,7.30
2014,12,07,02,32,7.30
2014,12,07,02,33,7.30
2014,12,07,02,34,7.30
2014,12,07,02,35,7.30
2014,12,07,02,36,7.30
2014,12,07,02,37,7.30
2014,12,07,02,38,7.30
2014,12,07,02,39,7.30
2014,12,07,02,40,7.30
2014,12,07,02,41,7.30
2014,12,07,02,42,7.30
2014,12,07,02,43,7.30
2014,12,07,02,44,7.30
2014,12,07,02,45,7.30
2014,12,07,02,46,7.30
2014,12,07,02,47,7.30
2014,12,07,02,48,7.30
2014,12,07,02,49,7.30
2014,12,07,02,50,7.30
2014,12,07,02,51,7.30
2014,12,07,02,52,7.30
2014,12,07,02,53,7.30
2014,12,07,02,54,7.30
2014,12,07,02,55,7.30
2014,12,07,02,56,7.30
2014,12,07,02,57,7.30
2014,12,07,02,58,7.30
2014,12,07,02,59,7.30
2014,12,07,03,00,7.30
2014,12,07,03,01,7.30
2014,12,07,03,02,7.30
2014,12,07,03,03,7.30
2014,12,07,03,06,7.30
2014,12,07,03,07,7.30
2014,12,07,03,08,7.30
2014,12,07,03,09,7.30
2014,12,07,03,10,7.30
2014,12,07,03,11,7.30
2014,12,07,03,12,7.30
2014,12,07,03,13,7.30
2014,12,07,03,14,7.30
2014,12,07,03,15,7.30
2014,12,07,03,16,7.30
2014,12,07,03,17,7.30
2014,12,07,03,18,7.30
2014,12,07,03,19,7.30
2014,12,07,03,20,7.30
2014,12,07,03,21,7.30
2014,12,07,03,22,7.30
2014,12,07,03,23,7.30
2014,12,07,03,24,7.30
2014,12,07,03,25,7.30
2014,12,07,03,26,7.30
2014,12,07,03,27,7.30
2014,12,07,03,28,7.30
2014,12,07,03,29,7.30
2014,12,07,03,30,7.30
2014,12,07,03,31,7.30
2014,12,07,03,32,7.30
2014,12,07,03,33,7.30
2014,12,07,03,34,7.30
2014,12,07,03,35,7.30
2014,12,07,03,36,7.30
2014,12,07,03,37,7.30
2014,12,07,03,38,7.30
2014,12,07,03,39,7.30
2014,12,07,03,40,7.30
2014,12,07,03,41,7.30
2014,12,07,03,42,7.30
2014,12,07,03,43,7.30
2014,12,07,03,44,7.30
2014,12,07,03,45,7.30
2014,12,07,03,46,7.30
2014,12,07,03,47,7.30
2014,12,07,03,48,7.30
2014,12,07,03,49,7.30
2014,12,07,03,50,7.30
2014,12,07,03,51,7.30
2014,12,07,03,52,7.30
2014,12,07,03,53,7.30
2014,12,07,03,54,7.30
2014,12,07,03,55,7.30
2014,12,07,03,56,7.30
2014,12,07,03,57,7.30
2014,12,07,03,58,7.30
2014,12,07,03,59,7.30
2014,12,07,04,00,7.30
2014,12,07,04,01,7.30
2014,12,07,04,02,7.30
2014,12,07,04,03,7.30
2014,12,07,04,04,7.30
2014,12,07,04,05,7.30
2014,12,07,04,06,7.30
2014,12,07,04,07,7.30
2014,12,07,04,08,7.30
2014,12,07,04,09,7.30
2014,12,07,04,10,7.30
2014,12,07,04,11,7.30
2014,12,07,04,12,7.30
2014,12,07,04,13,7.30
2014,12,07,04,14,7.30
2014,12,07,04,15,7.30
2014,12,07,04,16,7.30
2014,12,07,04,17,7.30
2014,12,07,04,18,7.30
2014,12,07,04,19,7.30
2014,12,07,04,20,7.30
2014,12,07,04,21,7.30
2014,12,07,04,22,7.30
2014,12,07,04,23,7.30
2014,12,07,04,24,7.30
2014,12,07,04,25,7.30
2014,12,07,04,26,7.30
2014,12,07,04,27,7.30
2014,12,07,04,28,7.30
2014,12,07,04,29,7.30
2014,12,07,04,30,7.30
2014,12,07,04,31,7.30
2014,12,07,04,32,7.30
2014,12,07,04,33,7.30
2014,12,07,04,34,7.30
2014,12,07,04,35,7.30
2014,12,07,04,36,7.30
2014,12,07,04,37,7.30
2014,12,07,04,38,7.30
2014,12,07,04,39,7.30
2014,12,07,04,40,7.30
2014,12,07,04,41,7.30
2014,12,07,04,42,7.30
2014,12,07,04,43,7.30
2014,12,07,04,44,7.30
2014,12,07,04,45,7.30
2014,12,07,04,46,7.30
2014,12,07,04,47,7.30
2014,12,07,04,48,7.30
2014,12,07,04,49,7.30
2014,12,07,04,50,7.30
2014,12,07,04,51,7.30
2014,12,07,04,52,7.30
2014,12,07,04,53,7.30
2014,12,07,04,54,7.30
2014,12,07,04,55,7.30
2014,12,07,04,56,7.30
2014,12,07,04,57,7.30
2014,12,07,04,58,7.30
2014,12,07,04,59,7.30
2014,12,07,05,00,7.30
2014,12,07,05,01,7.30
2014,12,07,05,02,7.30
2014,12,07,05,03,7.30
2014,12,07,05,04,7.30
2014,12,07,05,05,7.30
2014,12,07,05,06,7.30
2014,12,07,05,07,7.30
2014,12,07,05,08,7.30
2014,12,07,05,09,7.30
2014,12,07,05,10,7.30
2014,12,07,05,11,7.30
2014,12,07,05,12,7.30
2014,12,07,05,13,7.30
2014,12,07,05,14,7.30
2014,12,07,05,15,7.30
2014,12,07,05,16,7.30
2014,12,07,05,17,7.30
2014,12,07,05,18,7.20
2014,12,07,05,19,7.30
2014,12,07,05,20,7.30
2014,12,07,05,21,7.30
2014,12,07,05,22,7.30
2014,12,07,05,23,7.30
2014,12,07,05,24,7.30
2014,12,07,05,25,7.30
2014,12,07,05,26,7.30
2014,12,07,05,27,7.30
2014,12,07,05,28,7.30
2014,12,07,05,29,7.30
2014,12,07,05,30,7.30
2014,12,07,05,31,7.30
2014,12,07,05,32,7.30
2014,12,07,05,33,7.30
2014,12,07,05,34,7.30
2014,12,07,05,35,7.40
2014,12,07,05,36,7.40
2014,12,07,05,37,7.40
2014,12,07,05,38,7.40
2014,12,07,05,39,7.40
2014,12,07,05,40,7.40
2014,12,07,05,41,7.40
2014,12,07,05,42,7.40
2014,12,07,05,43,7.40
2014,12,07,05,44,7.40
2014,12,07,05,45,7.40
2014,12,07,05,46,7.40
2014,12,07,05,47,7.40
2014,12,07,05,48,7.40
2014,12,07,05,49,7.40
2014,12,07,05,50,7.40
2014,12,07,05,51,7.40
2014,12,07,05,52,7.40
2014,12,07,05,53,7.30
2014,12,07,05,54,7.30
2014,12,07,05,55,7.30
2014,12,07,05,56,7.30
2014,12,07,05,57,7.30
2014,12,07,05,58,7.30
2014,12,07,05,59,7.30
2014,12,07,06,00,7.30
2014,12,07,06,01,7.30
2014,12,07,06,02,7.30
2014,12,07,06,03,7.30
2014,12,07,06,04,7.30
2014,12,07,06,05,7.30
2014,12,07,06,06,7.30
2014,12,07,06,07,7.30
2014,12,07,06,08,7.30
2014,12,07,06,09,7.30
2014,12,07,06,10,7.30
2014,12,07,06,11,7.30
2014,12,07,06,12,7.30
2014,12,07,06,13,7.30
2014,12,07,06,14,7.30
2014,12,07,06,15,7.30
2014,12,07,06,16,7.30
2014,12,07,06,17,7.30
2014,12,07,06,18,7.30
2014,12,07,06,19,7.30
2014,12,07,06,20,7.30
2014,12,07,06,21,7.30
2014,12,07,06,22,7.30
2014,12,07,06,23,7.30
2014,12,07,06,24,7.30
2014,12,07,06,25,7.30
2014,12,07,06,26,7.30
2014,12,07,06,27,7.30
2014,12,07,06,28,7.30
2014,12,07,06,29,7.30
2014,12,07,06,30,7.30
2014,12,07,06,31,7.30
2014,12,07,06,32,7.30
2014,12,07,06,33,7.30
2014,12,07,06,34,7.30
2014,12,07,06,35,7.30
2014,12,07,06,36,7.30
2014,12,07,06,37,7.30
2014,12,07,06,38,7.30
2014,12,07,06,39,7.30
2014,12,07,06,40,7.30
2014,12,07,06,41,7.30
2014,12,07,06,42,7.30
2014,12,07,06,43,7.30
2014,12,07,06,44,7.30
2014,12,07,06,45,7.30
2014,12,07,06,46,7.30
2014,12,07,06,47,7.30
2014,12,07,06,48,7.30
2014,12,07,06,49,7.30
2014,12,07,06,50,7.30
2014,12,07,06,51,7.30
2014,12,07,06,52,7.30
2014,12,07,06,53,7.40
2014,12,07,06,54,7.50
2014,12,07,06,55,7.60
2014,12,07,06,56,7.60
2014,12,07,06,57,7.70
2014,12,07,06,58,7.70
2014,12,07,06,59,7.80
2014,12,07,07,00,7.80
2014,12,07,07,01,7.80
2014,12,07,07,02,7.80
2014,12,07,07,03,7.80
2014,12,07,07,04,7.90
2014,12,07,07,05,7.90
2014,12,07,07,06,7.90
2014,12,07,07,07,7.90
2014,12,07,07,08,7.90
2014,12,07,07,09,7.80
2014,12,07,07,10,7.80
2014,12,07,07,11,7.80
2014,12,07,07,12,7.70
2014,12,07,07,13,7.70
2014,12,07,07,14,7.60
2014,12,07,07,15,7.50
2014,12,07,07,16,7.50
2014,12,07,07,17,7.40
2014,12,07,07,18,7.30
2014,12,07,07,19,7.30
2014,12,07,07,20,7.20
2014,12,07,07,21,7.20
2014,12,07,07,22,7.20
2014,12,07,07,23,7.20
2014,12,07,07,24,7.10
2014,12,07,07,25,7.10
2014,12,07,07,26,7.10
2014,12,07,07,27,7.10
2014,12,07,07,28,7.10
2014,12,07,07,29,7.10
2014,12,07,07,30,7.10
2014,12,07,07,31,7.10
2014,12,07,07,32,7.10
2014,12,07,07,33,7.00
2014,12,07,07,34,7.00
2014,12,07,07,35,7.00
2014,12,07,07,36,7.00
2014,12,07,07,37,7.00
2014,12,07,07,38,7.00
2014,12,07,07,39,7.00
2014,12,07,07,40,7.00
2014,12,07,07,41,7.10
2014,12,07,07,42,7.10
2014,12,07,07,43,7.10
2014,12,07,07,44,7.10
2014,12,07,07,45,7.10
2014,12,07,07,46,7.10
2014,12,07,07,47,7.10
2014,12,07,07,48,7.10
2014,12,07,07,49,7.10
2014,12,07,07,50,7.10
2014,12,07,07,51,7.10
2014,12,07,07,52,7.10
2014,12,07,07,53,7.10
2014,12,07,07,54,7.10
2014,12,07,07,55,7.20
2014,12,07,07,56,7.20
2014,12,07,07,57,7.20
2014,12,07,07,58,7.20
2014,12,07,07,59,7.20
2014,12,07,08,00,7.20
2014,12,07,08,01,7.30
2014,12,07,08,02,7.30
2014,12,07,08,03,7.30
2014,12,07,08,04,7.30
2014,12,07,08,05,7.30
2014,12,07,08,06,7.40
2014,12,07,08,07,7.40
2014,12,07,08,08,7.40
2014,12,07,08,09,7.50
2014,12,07,08,10,7.50
2014,12,07,08,11,7.60
2014,12,07,08,12,7.60
2014,12,07,08,13,7.60
2014,12,07,08,14,7.60
2014,12,07,08,15,7.60
2014,12,07,08,16,7.60
2014,12,07,08,17,7.70
2014,12,07,08,18,7.70
2014,12,07,08,19,7.70
2014,12,07,08,20,7.70
2014,12,07,08,21,7.70
2014,12,07,08,22,7.70
2014,12,07,08,23,7.70
2014,12,07,08,24,7.70
2014,12,07,08,25,7.70
2014,12,07,08,26,7.70
2014,12,07,08,27,7.80
2014,12,07,08,28,7.80
2014,12,07,08,29,7.80
2014,12,07,08,30,7.80
2014,12,07,08,31,7.90
2014,12,07,08,32,7.90
2014,12,07,08,33,7.90
2014,12,07,08,34,7.90
2014,12,07,08,35,7.90
2014,12,07,08,36,7.90
2014,12,07,08,37,7.90
2014,12,07,08,38,7.90
2014,12,07,08,39,7.90
2014,12,07,08,40,7.90
2014,12,07,08,41,7.90
2014,12,07,08,42,7.80
2014,12,07,08,43,7.80
2014,12,07,08,44,7.80
2014,12,07,08,45,7.80
2014,12,07,08,46,7.80
2014,12,07,08,47,7.80
2014,12,07,08,48,7.80
2014,12,07,08,49,7.70
2014,12,07,08,50,7.70
2014,12,07,08,51,7.70
2014,12,07,08,52,7.70
2014,12,07,08,53,7.70
2014,12,07,08,54,7.70
2014,12,07,08,55,7.70
2014,12,07,08,56,7.70
2014,12,07,08,57,7.70
2014,12,07,08,58,7.70
2014,12,07,08,59,7.80
2014,12,07,09,00,7.80
2014,12,07,09,01,7.80
2014,12,07,09,02,7.80
2014,12,07,09,03,7.80
2014,12,07,09,04,7.80
2014,12,07,09,05,7.80
2014,12,07,09,06,7.80
2014,12,07,09,07,7.80
2014,12,07,09,08,7.80
2014,12,07,09,09,7.80
2014,12,07,09,10,7.80
2014,12,07,09,11,7.80
2014,12,07,09,12,7.90
2014,12,07,09,13,7.90
2014,12,07,09,14,7.90
2014,12,07,09,15,7.90
2014,12,07,09,16,7.90
2014,12,07,09,17,7.90
2014,12,07,09,18,8.00
2014,12,07,09,19,8.00
2014,12,07,09,20,8.00
2014,12,07,09,21,8.10
2014,12,07,09,22,8.10
2014,12,07,09,23,8.20
2014,12,07,09,24,8.20
2014,12,07,09,25,8.20
2014,12,07,09,26,8.20
2014,12,07,09,27,8.20
2014,12,07,09,28,8.20
2014,12,07,09,29,8.20
2014,12,07,09,30,8.20
2014,12,07,09,31,8.20
2014,12,07,09,32,8.30
2014,12,07,09,33,8.30
2014,12,07,09,34,8.30
2014,12,07,09,35,8.30
2014,12,07,09,36,8.40
2014,12,07,09,37,8.40
2014,12,07,09,38,8.40
2014,12,07,09,39,8.40
2014,12,07,09,40,8.40
2014,12,07,09,41,8.50
2014,12,07,09,42,8.50
2014,12,07,09,43,8.50
2014,12,07,09,44,8.50
2014,12,07,09,45,8.60
2014,12,07,09,46,8.60
2014,12,07,09,47,8.60
2014,12,07,09,48,8.60
2014,12,07,09,49,8.60
2014,12,07,09,50,8.60
2014,12,07,09,51,8.70
2014,12,07,09,52,8.70
2014,12,07,09,53,8.70
2014,12,07,09,54,8.70
2014,12,07,09,55,8.70
2014,12,07,09,56,8.70
2014,12,07,09,57,8.70
2014,12,07,09,58,8.70
2014,12,07,09,59,8.60
2014,12,07,10,00,8.60
2014,12,07,10,01,8.50
2014,12,07,10,02,8.50
2014,12,07,10,03,8.40
2014,12,07,10,04,8.40
2014,12,07,10,05,8.40
2014,12,07,10,06,8.40
2014,12,07,10,07,8.40
2014,12,07,10,08,8.40
2014,12,07,10,09,8.40
2014,12,07,10,10,8.40
2014,12,07,10,11,8.40
2014,12,07,10,12,8.40
2014,12,07,10,13,8.40
2014,12,07,10,14,8.40
2014,12,07,10,15,8.40
2014,12,07,10,16,8.50
2014,12,07,10,17,8.50
2014,12,07,10,18,8.50
2014,12,07,10,19,8.60
2014,12,07,10,20,8.60
2014,12,07,10,21,8.60
2014,12,07,10,22,8.60
2014,12,07,10,23,8.70
2014,12,07,10,24,8.70
2014,12,07,10,25,8.70
2014,12,07,10,26,8.70
2014,12,07,10,27,8.70
2014,12,07,10,28,8.80
2014,12,07,10,29,8.80
2014,12,07,10,30,8.80
2014,12,07,10,31,8.80
2014,12,07,10,32,8.80
2014,12,07,10,33,8.80
2014,12,07,10,34,8.90
2014,12,07,10,35,8.90
2014,12,07,10,36,8.90
2014,12,07,10,37,9.00
2014,12,07,10,38,9.00
2014,12,07,10,39,9.00
2014,12,07,10,40,9.10
2014,12,07,10,41,9.10
2014,12,07,10,42,9.10
2014,12,07,10,43,9.10
2014,12,07,10,44,9.20
2014,12,07,10,45,9.20
2014,12,07,10,46,9.20
2014,12,07,10,47,9.20
2014,12,07,10,48,9.20
2014,12,07,10,49,9.30
2014,12,07,10,50,9.30
2014,12,07,10,51,9.30
2014,12,07,10,52,9.30
2014,12,07,10,53,9.40
2014,12,07,10,54,9.40
2014,12,07,10,55,9.40
2014,12,07,10,56,9.40
2014,12,07,10,57,9.50
2014,12,07,10,58,9.50
2014,12,07,10,59,9.60
2014,12,07,11,00,9.60
2014,12,07,11,01,9.60
2014,12,07,11,02,9.60
2014,12,07,11,03,9.60
2014,12,07,11,04,9.60
2014,12,07,11,05,9.60
2014,12,07,11,06,9.60
2014,12,07,11,07,9.60
2014,12,07,11,08,9.70
2014,12,07,11,09,9.70
2014,12,07,11,10,9.70
2014,12,07,11,11,9.70
2014,12,07,11,12,9.70
2014,12,07,11,13,9.70
2014,12,07,11,14,9.70
2014,12,07,11,15,9.70
2014,12,07,11,16,9.70
2014,12,07,11,17,9.70
2014,12,07,11,18,9.80
2014,12,07,11,19,9.80
2014,12,07,11,20,9.80
2014,12,07,11,21,9.80
2014,12,07,11,22,9.80
2014,12,07,11,23,9.80
2014,12,07,11,24,9.90
2014,12,07,11,25,9.90
2014,12,07,11,26,9.90
2014,12,07,11,27,10.00
2014,12,07,11,28,10.00
2014,12,07,11,29,10.00
2014,12,07,11,30,10.00
2014,12,07,11,31,10.00
2014,12,07,11,32,10.00
2014,12,07,11,33,10.00
2014,12,07,11,34,10.00
2014,12,07,11,35,10.00
2014,12,07,11,36,10.00
2014,12,07,11,37,10.00
2014,12,07,11,38,10.00
2014,12,07,11,39,10.10
2014,12,07,11,40,10.10
2014,12,07,11,41,10.10
2014,12,07,11,42,10.00
2014,12,07,11,43,10.00
2014,12,07,11,44,10.00
2014,12,07,11,45,10.00
2014,12,07,11,46,10.00
2014,12,07,11,47,10.00
2014,12,07,11,48,10.00
2014,12,07,11,49,10.00
2014,12,07,11,50,10.10
2014,12,07,11,51,10.10
2014,12,07,11,52,10.10
2014,12,07,11,53,10.10
2014,12,07,11,54,10.10
2014,12,07,11,55,10.10
2014,12,07,11,56,10.10
2014,12,07,11,57,10.10
2014,12,07,11,58,10.10
2014,12,07,11,59,10.20
2014,12,07,12,00,10.20
2014,12,07,12,01,10.20
2014,12,07,12,02,10.20
2014,12,07,12,03,10.20
2014,12,07,12,04,10.20
2014,12,07,12,05,10.20
2014,12,07,12,06,10.20
2014,12,07,12,07,10.20
2014,12,07,12,08,10.20
2014,12,07,12,09,10.20
2014,12,07,12,10,10.20
2014,12,07,12,11,10.20
2014,12,07,12,12,10.20
2014,12,07,12,13,10.20
2014,12,07,12,14,10.20
2014,12,07,12,15,10.20
2014,12,07,12,16,10.20
2014,12,07,12,17,10.10
2014,12,07,12,18,10.10
2014,12,07,12,19,10.10
2014,12,07,12,20,10.10
2014,12,07,12,21,10.20
2014,12,07,12,22,10.20
2014,12,07,12,23,10.20
2014,12,07,12,24,10.20
2014,12,07,12,25,10.10
2014,12,07,12,26,10.20
2014,12,07,12,27,10.20
2014,12,07,12,28,10.20
2014,12,07,12,29,10.20
2014,12,07,12,30,10.20
2014,12,07,12,31,10.20
2014,12,07,12,32,10.20
2014,12,07,12,33,10.20
2014,12,07,12,34,10.30
2014,12,07,12,35,10.30
2014,12,07,12,36,10.30
2014,12,07,12,37,10.30
2014,12,07,12,38,10.40
2014,12,07,12,39,10.40
2014,12,07,12,40,10.40
2014,12,07,12,41,10.50
2014,12,07,12,42,10.50
2014,12,07,12,43,10.50
2014,12,07,12,44,10.60
2014,12,07,12,45,10.60
2014,12,07,12,46,10.60
2014,12,07,12,47,10.60
2014,12,07,12,48,10.70
2014,12,07,12,49,10.70
2014,12,07,12,50,10.70
2014,12,07,12,51,10.70
2014,12,07,12,52,10.70
2014,12,07,12,53,10.70
2014,12,07,12,54,10.70
2014,12,07,12,55,10.80
2014,12,07,12,56,10.80
2014,12,07,12,57,10.80
2014,12,07,12,58,10.80
2014,12,07,12,59,10.90
2014,12,07,13,00,10.90
2014,12,07,13,01,11.00
2014,12,07,13,02,11.00
2014,12,07,13,03,11.10
2014,12,07,13,04,11.10
2014,12,07,13,05,11.20
2014,12,07,13,06,11.20
2014,12,07,13,07,11.20
2014,12,07,13,08,11.30
2014,12,07,13,09,11.30
2014,12,07,13,10,11.30
2014,12,07,13,11,11.30
2014,12,07,13,12,11.40
2014,12,07,13,13,11.40
2014,12,07,13,14,11.40
2014,12,07,13,15,11.50
2014,12,07,13,16,11.50
2014,12,07,13,17,11.50
2014,12,07,13,18,11.50
2014,12,07,13,19,11.60
2014,12,07,13,20,11.60
2014,12,07,13,21,11.50
2014,12,07,13,22,11.50
2014,12,07,13,23,11.50
2014,12,07,13,24,11.40
2014,12,07,13,25,11.40
2014,12,07,13,26,11.40
2014,12,07,13,27,11.40
2014,12,07,13,28,11.40
2014,12,07,13,29,11.30
2014,12,07,13,30,11.30
2014,12,07,13,31,11.20
2014,12,07,13,32,11.20
2014,12,07,13,33,11.20
2014,12,07,13,34,11.20
2014,12,07,13,35,11.10
2014,12,07,13,36,11.10
2014,12,07,13,37,11.10
2014,12,07,13,38,11.10
2014,12,07,13,39,11.10
2014,12,07,13,40,11.10
2014,12,07,13,41,11.10
2014,12,07,13,42,11.10
2014,12,07,13,43,11.10
2014,12,07,13,44,11.10
2014,12,07,13,45,11.10
2014,12,07,13,46,11.10
2014,12,07,13,47,11.10
2014,12,07,13,48,11.10
2014,12,07,13,49,11.00
2014,12,07,13,50,11.00
2014,12,07,13,51,11.00
2014,12,07,13,52,10.90
2014,12,07,13,53,10.90
2014,12,07,13,54,10.90
2014,12,07,13,55,10.90
2014,12,07,13,56,10.80
2014,12,07,13,57,10.80
2014,12,07,13,58,10.80
2014,12,07,13,59,10.80
2014,12,07,14,00,10.80
2014,12,07,14,01,10.80
2014,12,07,14,02,10.80
2014,12,07,14,03,10.80
2014,12,07,14,04,10.80
2014,12,07,14,05,10.80
2014,12,07,14,06,10.70
2014,12,07,14,07,10.70
2014,12,07,14,08,10.70
2014,12,07,14,09,10.70
2014,12,07,14,10,10.70
2014,12,07,14,11,10.70
2014,12,07,14,12,10.70
2014,12,07,14,13,10.70
2014,12,07,14,14,10.70
2014,12,07,14,15,10.70
2014,12,07,14,16,10.70
2014,12,07,14,17,10.70
2014,12,07,14,18,10.70
2014,12,07,14,19,10.60
2014,12,07,14,20,10.60
2014,12,07,14,21,10.60
2014,12,07,14,22,10.60
2014,12,07,14,23,10.60
2014,12,07,14,24,10.60
2014,12,07,14,25,10.60
2014,12,07,14,26,10.60
2014,12,07,14,27,10.60
2014,12,07,14,28,10.60
2014,12,07,14,29,10.60
2014,12,07,14,30,10.60
2014,12,07,14,31,10.60
2014,12,07,14,32,10.60
2014,12,07,14,33,10.60
2014,12,07,14,34,10.60
2014,12,07,14,35,10.60
2014,12,07,14,36,10.60
2014,12,07,14,37,10.60
2014,12,07,14,38,10.50
2014,12,07,14,39,10.50
2014,12,07,14,40,10.40
2014,12,07,14,41,10.30
2014,12,07,14,42,10.30
2014,12,07,14,43,10.20
2014,12,07,14,44,10.10
2014,12,07,14,45,10.10
2014,12,07,14,46,10.00
2014,12,07,14,47,10.00
2014,12,07,14,48,9.90
2014,12,07,14,49,9.90
2014,12,07,14,50,9.80
2014,12,07,14,51,9.80
2014,12,07,14,52,9.80
2014,12,07,14,53,9.80
2014,12,07,14,54,9.70
2014,12,07,14,55,9.70
2014,12,07,14,56,9.70
2014,12,07,14,57,9.70
2014,12,07,14,58,9.70
2014,12,07,14,59,9.70
2014,12,07,15,00,9.70
2014,12,07,15,01,9.70
2014,12,07,15,02,9.70
2014,12,07,15,03,9.80
2014,12,07,15,04,9.80
2014,12,07,15,05,9.80
2014,12,07,15,06,9.80
2014,12,07,15,07,9.90
2014,12,07,15,08,9.90
2014,12,07,15,09,9.90
2014,12,07,15,10,9.90
2014,12,07,15,11,10.00
2014,12,07,15,12,10.00
2014,12,07,15,13,10.00
2014,12,07,15,14,10.00
2014,12,07,15,15,10.00
2014,12,07,15,16,10.10
2014,12,07,15,17,10.10
2014,12,07,15,18,10.10
2014,12,07,15,19,10.10
2014,12,07,15,20,10.10
2014,12,07,15,21,10.10
2014,12,07,15,22,10.10
2014,12,07,15,23,10.10
2014,12,07,15,24,10.10
2014,12,07,15,25,10.20
2014,12,07,15,26,10.20
2014,12,07,15,27,10.20
2014,12,07,15,28,10.20
2014,12,07,15,29,10.20
2014,12,07,15,30,10.20
2014,12,07,15,31,10.10
2014,12,07,15,32,10.10
2014,12,07,15,33,10.10
2014,12,07,15,34,10.10
2014,12,07,15,35,10.10
2014,12,07,15,36,10.10
2014,12,07,15,37,10.00
2014,12,07,15,38,10.00
2014,12,07,15,39,10.00
2014,12,07,15,40,10.00
2014,12,07,15,41,9.90
2014,12,07,15,42,9.90
2014,12,07,15,43,10.00
2014,12,07,15,44,10.00
2014,12,07,15,45,9.90
2014,12,07,15,46,9.90
2014,12,07,15,47,9.90
2014,12,07,15,48,9.90
2014,12,07,15,49,9.90
2014,12,07,15,50,9.90
2014,12,07,15,51,9.90
2014,12,07,15,52,9.90
2014,12,07,15,53,9.90
2014,12,07,15,54,9.90
2014,12,07,15,55,9.90
2014,12,07,15,56,9.90
2014,12,07,15,57,9.90
2014,12,07,15,58,9.90
2014,12,07,15,59,9.80
2014,12,07,16,00,9.80
2014,12,07,16,01,9.80
2014,12,07,16,02,9.80
2014,12,07,16,03,9.80
2014,12,07,16,04,9.80
2014,12,07,16,05,9.80
2014,12,07,16,06,9.70
2014,12,07,16,07,9.70
2014,12,07,16,08,9.70
2014,12,07,16,09,9.70
2014,12,07,16,10,9.70
2014,12,07,16,11,9.70
2014,12,07,16,12,9.70
2014,12,07,16,13,9.70
2014,12,07,16,14,9.60
2014,12,07,16,15,9.60
2014,12,07,16,16,9.60
2014,12,07,16,17,9.60
2014,12,07,16,18,9.60
2014,12,07,16,19,9.60
2014,12,07,16,20,9.60
2014,12,07,16,21,9.60
2014,12,07,16,22,9.60
2014,12,07,16,23,9.50
2014,12,07,16,24,9.50
2014,12,07,16,25,9.50
2014,12,07,16,26,9.60
2014,12,07,16,27,9.50
2014,12,07,16,28,9.50
2014,12,07,16,29,9.50
2014,12,07,16,30,9.50
2014,12,07,16,31,9.50
2014,12,07,16,32,9.50
2014,12,07,16,33,9.50
2014,12,07,16,34,9.40
2014,12,07,16,35,9.50
2014,12,07,16,36,9.40
2014,12,07,16,37,9.40
2014,12,07,16,38,9.40
2014,12,07,16,39,9.40
2014,12,07,16,40,9.40
2014,12,07,16,41,9.40
2014,12,07,16,42,9.40
2014,12,07,16,43,9.40
2014,12,07,16,44,9.40
2014,12,07,16,45,9.40
2014,12,07,16,46,9.40
2014,12,07,16,47,9.40
2014,12,07,16,48,9.40
2014,12,07,16,49,9.40
2014,12,07,16,50,9.40
2014,12,07,16,51,9.40
2014,12,07,16,52,9.40
2014,12,07,16,53,9.40
2014,12,07,16,54,9.40
2014,12,07,16,55,9.40
2014,12,07,16,56,9.40
2014,12,07,16,57,9.40
2014,12,07,16,58,9.40
2014,12,07,16,59,9.30
2014,12,07,17,00,9.30
2014,12,07,17,01,9.30
2014,12,07,17,02,9.30
2014,12,07,17,03,9.30
2014,12,07,17,04,9.30
2014,12,07,17,05,9.30
2014,12,07,17,06,9.30
2014,12,07,17,07,9.30
2014,12,07,17,08,9.30
2014,12,07,17,09,9.30
2014,12,07,17,10,9.30
2014,12,07,17,11,9.30
2014,12,07,17,12,9.30
2014,12,07,17,13,9.30
2014,12,07,17,14,9.30
2014,12,07,17,15,9.30
2014,12,07,17,16,9.30
2014,12,07,17,17,9.30
2014,12,07,17,18,9.30
2014,12,07,17,19,9.30
2014,12,07,17,20,9.30
2014,12,07,17,21,9.30
2014,12,07,17,22,9.30
2014,12,07,17,23,9.30
2014,12,07,17,24,9.30
2014,12,07,17,25,9.30
2014,12,07,17,26,9.30
2014,12,07,17,27,9.30
2014,12,07,17,28,9.30
2014,12,07,17,29,9.30
2014,12,07,17,30,9.30
2014,12,07,17,31,9.30
2014,12,07,17,32,9.30
2014,12,07,17,33,9.30
2014,12,07,17,34,9.30
2014,12,07,17,35,9.30
2014,12,07,17,36,9.30
2014,12,07,17,37,9.30
2014,12,07,17,38,9.30
2014,12,07,17,39,9.30
2014,12,07,17,40,9.30
2014,12,07,17,41,9.30
2014,12,07,17,42,9.30
2014,12,07,17,43,9.30
2014,12,07,17,44,9.30
2014,12,07,17,45,9.30
2014,12,07,17,46,9.30
2014,12,07,17,47,9.30
2014,12,07,17,48,9.30
2014,12,07,17,49,9.30
2014,12,07,17,50,9.30
2014,12,07,17,51,9.30
2014,12,07,17,52,9.20
2014,12,07,17,53,9.20
2014,12,07,17,54,9.20
2014,12,07,17,55,9.20
2014,12,07,17,56,9.20
2014,12,07,17,57,9.20
2014,12,07,17,58,9.20